TimeCDT,TemperatureF,Dew PointF,Humidity,Sea Level PressureIn,VisibilityMPH,Wind Direction,Wind SpeedMPH,Gust SpeedMPH,PrecipitationIn,Events,Conditions,WindDirDegrees,DateUTC
12:15 AM,14.0,10.4,86,30.25,1.8,WSW,6.9,-,0.19,Snow,Light Snow,250,2013-04-10 05:15:00
12:35 AM,14.0,10.4,86,30.24,1.5,WSW,6.9,-,0.74,Snow,Light Snow,250,2013-04-10 05:35:00
12:55 AM,14.0,10.4,86,30.22,1.5,West,8.1,-,1.00,Snow,Light Snow,260,2013-04-10 05:55:00
1:15 AM,14.0,10.4,86,30.22,2.0,West,9.2,-,0.11,Snow,Light Snow,260,2013-04-10 06:15:00
1:35 AM,14.0,10.4,86,30.22,2.5,WSW,5.8,-,0.22,Snow,Light Snow,250,2013-04-10 06:35:00
1:55 AM,14.0,10.4,86,30.21,3.0,WSW,6.9,-,0.29,Snow,Light Snow,250,2013-04-10 06:55:00
2:15 AM,14.0,10.4,86,30.21,2.5,West,5.8,-,0.12,Snow,Light Snow,260,2013-04-10 07:15:00
2:35 AM,14.0,10.4,86,30.22,1.5,WSW,3.5,-,0.37,Snow,Light Snow,240,2013-04-10 07:35:00
2:55 AM,14.0,10.4,86,30.22,1.5,WSW,4.6,-,0.97,Snow,Light Snow,240,2013-04-10 07:55:00
3:15 AM,14.0,12.2,93,30.21,0.8,WSW,4.6,-,0.43,Snow,Light Snow,240,2013-04-10 08:15:00
3:35 AM,14.0,12.2,93,30.20,1.2,West,5.8,-,0.97,Snow,Light Snow,260,2013-04-10 08:35:00
3:55 AM,14.0,12.2,93,30.19,1.2,WSW,4.6,-,1.46,Snow,Light Snow,240,2013-04-10 08:55:00
4:15 AM,15.8,12.2,86,30.19,1.5,West,4.6,-,0.14,Snow,Light Snow,260,2013-04-10 09:15:00
4:35 AM,15.8,12.2,86,30.19,2.5,West,5.8,-,0.35,Snow,Light Snow,260,2013-04-10 09:35:00
4:55 AM,15.8,12.2,86,30.19,3.0,WSW,5.8,-,0.48,Snow,Light Snow,250,2013-04-10 09:55:00
5:15 AM,15.8,12.2,86,30.19,2.0,West,5.8,-,0.37,Snow,Light Snow,260,2013-04-10 10:15:00
5:35 AM,15.8,14.0,93,30.20,3.0,WSW,4.6,-,0.67,Snow,Light Snow,250,2013-04-10 10:35:00
5:55 AM,15.8,14.0,93,30.19,3.0,West,8.1,-,0.86,Snow,Light Snow,280,2013-04-10 10:55:00
6:15 AM,15.8,14.0,93,30.19,2.0,West,6.9,-,0.40,Snow,Light Snow,270,2013-04-10 11:15:00
6:35 AM,15.8,14.0,93,30.19,2.5,West,8.1,-,1.11,Snow,Light Snow,280,2013-04-10 11:35:00
6:55 AM,15.8,14.0,93,30.19,2.0,West,10.4,-,1.52,Snow,Light Snow,280,2013-04-10 11:55:00
7:15 AM,15.8,14.0,93,30.19,3.0,West,9.2,-,0.12,Snow,Light Snow,270,2013-04-10 12:15:00
7:35 AM,15.8,14.0,93,30.19,1.8,West,10.4,-,0.35,Snow,Light Snow,280,2013-04-10 12:35:00
7:55 AM,15.8,14.0,93,30.20,2.5,West,6.9,-,0.59,Snow,Light Snow,270,2013-04-10 12:55:00
8:15 AM,15.8,14.0,93,30.20,1.8,West,8.1,-,0.20,Snow,Light Snow,280,2013-04-10 13:15:00
8:35 AM,15.8,14.0,93,30.20,0.8,WNW,6.9,-,0.94,Snow,Light Snow,290,2013-04-10 13:35:00
8:55 AM,17.6,14.0,86,30.20,1.5,WNW,5.8,-,1.41,Snow,Light Snow,300,2013-04-10 13:55:00
9:15 AM,17.6,14.0,86,30.19,1.2,WNW,6.9,-,0.18,Snow,Light Snow,300,2013-04-10 14:15:00
9:35 AM,17.6,14.0,86,30.19,2.5,WNW,6.9,-,0.32,Snow,Light Snow,300,2013-04-10 14:35:00
9:55 AM,17.6,14.0,86,30.19,3.0,WNW,5.8,-,0.38,Snow,Light Snow,300,2013-04-10 14:55:00
10:15 AM,17.6,14.0,86,30.18,4.0,WNW,6.9,-,0.01,Snow,Light Snow,290,2013-04-10 15:15:00
10:35 AM,17.6,15.8,93,30.18,7.0,West,5.8,-,0.02,Snow,Light Snow,280,2013-04-10 15:35:00
10:55 AM,17.6,15.8,93,30.18,2.5,NW,8.1,-,0.06,Snow,Light Snow,310,2013-04-10 15:55:00
11:15 AM,19.4,15.8,86,30.19,2.0,NW,6.9,-,0.03,Snow,Light Snow,320,2013-04-10 16:15:00
11:35 AM,19.4,15.8,86,30.18,4.0,NW,8.1,-,0.04,Snow,Light Snow,310,2013-04-10 16:35:00
11:55 AM,19.4,15.8,86,30.18,8.0,NNW,6.9,-,0.05,Snow,Light Snow,330,2013-04-10 16:55:00
12:15 PM,19.4,15.8,86,30.16,10.0,NW,5.8,-,N/A,Snow,Light Snow,320,2013-04-10 17:15:00
12:55 PM,23.0,15.8,74,30.14,10.0,NW,5.8,-,N/A,Snow,Light Snow,320,2013-04-10 17:55:00
1:15 PM,23.0,15.8,74,30.13,10.0,West,8.1,-,N/A,Snow,Light Snow,280,2013-04-10 18:15:00
1:35 PM,23.0,15.8,74,30.12,10.0,WNW,6.9,-,N/A,,Clear,290,2013-04-10 18:35:00
1:55 PM,24.8,17.6,74,30.11,10.0,NW,8.1,-,N/A,,Partly Cloudy,320,2013-04-10 18:55:00
2:15 PM,23.0,15.8,74,30.11,10.0,NW,6.9,-,N/A,,Partly Cloudy,320,2013-04-10 19:15:00
2:35 PM,24.8,15.8,69,30.10,10.0,NW,8.1,-,N/A,,Mostly Cloudy,320,2013-04-10 19:35:00
2:55 PM,24.8,15.8,69,30.09,10.0,NW,6.9,-,N/A,,Overcast,320,2013-04-10 19:55:00
3:15 PM,24.8,15.8,69,30.08,10.0,NW,8.1,-,N/A,,Overcast,320,2013-04-10 20:15:00
3:35 PM,24.8,14.0,64,30.08,10.0,NW,5.8,-,N/A,,Mostly Cloudy,320,2013-04-10 20:35:00
3:55 PM,26.6,10.4,51,30.06,10.0,NW,4.6,-,N/A,,Mostly Cloudy,310,2013-04-10 20:55:00
4:15 PM,26.6,10.4,51,30.05,10.0,Calm,Calm,-,N/A,,Overcast,0,2013-04-10 21:15:00
4:35 PM,24.8,14.0,64,30.04,10.0,ENE,4.6,-,N/A,,Overcast,60,2013-04-10 21:35:00
4:55 PM,26.6,14.0,59,30.03,10.0,Calm,Calm,-,N/A,,Overcast,0,2013-04-10 21:55:00
5:15 PM,28.4,15.8,59,30.03,10.0,Calm,Calm,-,N/A,,Overcast,0,2013-04-10 22:15:00
5:35 PM,28.4,14.0,55,30.02,10.0,SSE,3.5,-,N/A,,Overcast,150,2013-04-10 22:35:00
5:55 PM,26.6,12.2,55,30.01,10.0,Calm,Calm,-,N/A,,Overcast,0,2013-04-10 22:55:00
6:15 PM,24.8,10.4,54,30.01,10.0,ENE,5.8,-,N/A,,Mostly Cloudy,60,2013-04-10 23:15:00
6:35 PM,24.8,10.4,54,30.01,10.0,ENE,4.6,-,N/A,,Scattered Clouds,70,2013-04-10 23:35:00
6:55 PM,26.6,10.4,51,30.01,10.0,Calm,Calm,-,N/A,,Clear,0,2013-04-10 23:55:00
7:15 PM,26.6,10.4,51,30.00,10.0,Calm,Calm,-,N/A,,Clear,0,2013-04-11 00:15:00
7:35 PM,23.0,10.4,59,29.99,10.0,Calm,Calm,-,N/A,,Clear,0,2013-04-11 00:35:00
7:55 PM,23.0,10.4,59,29.99,10.0,Calm,Calm,-,N/A,,Clear,0,2013-04-11 00:55:00
8:15 PM,21.2,12.2,68,29.98,10.0,Calm,Calm,-,N/A,,Clear,0,2013-04-11 01:15:00
8:35 PM,21.2,10.4,63,29.97,10.0,SSW,3.5,-,N/A,,Clear,210,2013-04-11 01:35:00
8:55 PM,17.6,14.0,86,29.96,10.0,SSW,6.9,-,N/A,,Clear,200,2013-04-11 01:55:00
9:15 PM,17.6,14.0,86,29.96,10.0,SSW,6.9,-,N/A,,Clear,200,2013-04-11 02:15:00
9:35 PM,17.6,14.0,86,29.95,10.0,SSW,10.4,-,N/A,,Clear,200,2013-04-11 02:35:00
9:55 PM,17.6,12.2,79,29.95,10.0,South,8.1,-,N/A,,Clear,190,2013-04-11 02:55:00
10:15 PM,15.8,10.4,79,29.95,10.0,SSE,5.8,-,N/A,,Clear,150,2013-04-11 03:15:00
10:35 PM,15.8,10.4,79,29.95,10.0,South,4.6,-,N/A,,Clear,190,2013-04-11 03:35:00
10:55 PM,15.8,10.4,79,29.93,10.0,SSW,8.1,-,N/A,,Clear,200,2013-04-11 03:55:00
11:15 PM,14.0,8.6,79,29.93,10.0,SSE,4.6,-,N/A,,Clear,150,2013-04-11 04:15:00
11:35 PM,15.8,10.4,79,29.91,10.0,Calm,Calm,-,N/A,,Clear,0,2013-04-11 04:35:00
11:55 PM,14.0,8.6,79,29.90,10.0,SSE,6.9,-,N/A,,Clear,160,2013-04-11 04:55:00